Simultaneous Nadir Overpasses (SNOs) Predictions

Prediction of SNOs between GOES-15 and METOP-A Satellite Orbit:

Table of predicted SNOs for the next 14.0 days since TLE Epoch: 8/25/2012
Index Date Time (GOES-15) GOES-15 Lat,Lon METOP-A Lat,Lon Distance(km) Time Diff (sec)
1 08/25/2012 18:36:22 -0.26,-134.44 0.27,-136.80 268.94 80
2 08/26/2012 18:18:23 -0.24,-134.39 -0.83,-131.80 295.42 80
3 08/28/2012 06:34:43 0.27,-134.24 -0.21,-136.40 245.14 80
4 08/29/2012 06:16:44 0.25,-134.19 0.89,-131.40 318.64 80
5 08/30/2012 18:32:56 -0.29,-134.18 0.10,-135.97 203.14 80
6 08/31/2012 18:14:56 -0.27,-134.13 -1.00,-130.97 360.99 80
7 09/02/2012 06:31:17 0.30,-133.99 -0.03,-135.57 179.37 80
8 09/03/2012 06:13:16 0.28,-133.93 1.02,-130.56 384.10 80
9 09/04/2012 18:29:28 -0.31,-133.91 -0.04,-135.13 138.67 80
10 09/05/2012 18:11:28 -0.29,-133.86 -1.09,-130.12 424.89 80
11 09/07/2012 06:27:48 0.31,-133.71 0.07,-134.72 115.87 80




NCC Satellite Simultaneous Nadir Overpasses (SNOs) Prediction Service
